Content
SEND FEEDBACK

Daily
Averages
Monthly
Summary
United States of America

LA HONDA, CALIFORNIA


Home > North America > United States > California
Elevation: 670 feet     Latitude: 37 19N     Longitude: 122 16W

WEATHER
 
SELECT A DAY
Number of Records: 176,537;   Date Range: 1/11/95 - 8/12/14
 
SHARE

PRINT THIS DATA

[ ← Previous Day ]
WEATHER ALMANAC - JANUARY 31, 2013
[ Next Day → ]
[ °C ]   °F
Weather ElementAverageHighLow
Temperature51.6 °F64.9 °F (2:56 pm)41 °F (3:56 am)
Dewpoint41.4 °F46.9 °F (3:56 pm)37 °F (1:56 am)
Humidity70 %89 % (3:56 am)42 % (2:56 pm)
Barometer30.25 in30.32 in (9:56 am)30.20 in (4:56 pm)
Wind Speed1.7 mph9.2 mph (3:56 pm)
Weather ElementAverage
Visibility10 mi
Wind DirectionE (84.8 °)

Weather ElementTotal
Precipitation---
Heating Degree Days12.1 (Base 65)
Growing Degree Days3 (Base 50)
Averaged from 23 records on January 31, 2013
WEATHER CONDITIONS BREAKOUT
WIND DIRECTION BREAKOUT
WEATHER BY HOUR - JANUARY 31, 2013
[ °C ]   °F
Local TimeTemperatureDewpointHumidityBarometerVisibilityWind DirectionWind SpeedGust SpeedPrecipitationEventsConditions
1:56 AM43.0 °F37.0 °F80 %30.30 in10.0 miCalmClear
2:56 AM43.0 °F37.9 °F82 %30.29 in10.0 miCalmClear
3:56 AM41.0 °F37.9 °F89 %30.28 in10.0 miCalmClear
4:56 AM42.1 °F37.9 °F85 %30.29 in10.0 miCalmClear
5:56 AM43.0 °F37.9 °F82 %30.28 in10.0 miCalmClear
6:56 AM41.0 °F37.9 °F89 %30.29 in10.0 miCalmClear
7:56 AM43.0 °F39.0 °F86 %30.31 in10.0 miCalmClear
8:56 AM48.9 °F42.1 °F77 %30.31 in10.0 miNW (310°)3.5 mphClear
9:56 AM52.0 °F42.1 °F69 %30.32 in10.0 miNE (40°)4.6 mphClear
10:56 AM54.0 °F41.0 °F62 %30.31 in10.0 miCalmClear
11:56 AM59.0 °F42.1 °F53 %30.28 in10.0 miNE (40°)4.6 mphClear
12:56 PM60.1 °F41.0 °F49 %30.25 in10.0 miCalmClear
1:56 PM64.0 °F42.1 °F45 %30.22 in10.0 miNorth (10°)3.5 mphClear
2:56 PM64.9 °F41.0 °F42 %30.21 in10.0 miNorth (360°)3.5 mphClear
3:56 PM62.1 °F46.9 °F58 %30.21 in10.0 miNorth (350°)9.2 mphClear
4:56 PM57.9 °F45.0 °F62 %30.20 in10.0 miNNW (330°)3.5 mphClear
5:56 PM57.9 °F44.1 °F60 %30.20 in10.0 miCalmClear
6:56 PM57.9 °F44.1 °F60 %30.21 in10.0 miWest (260°)3.5 mphClear
7:56 PM54.0 °F44.1 °F69 %30.21 in10.0 miCalmClear
8:56 PM51.1 °F43.0 °F74 %30.20 in10.0 miCalmClear
9:56 PM50.0 °F43.0 °F77 %30.20 in10.0 miCalmClear
10:56 PM48.9 °F43.0 °F80 %30.21 in10.0 miWSW (250°)3.5 mphClear
11:56 PM48.0 °F42.1 °F80 %30.21 in10.0 miCalmClear
Hourly data recorded from KNUQ, located miles away from La Honda, California







STORIES FROM OUR PARTNERS